Terminal Aerodrome Forecast
Issued by NWS

Home | Current Version | Previous Version | Text Only | Print | Product List | Glossary On
Versions: 1 2 3 4 5 6 7 8 9 10 11 12 13 14 15 16 17 18 19 20 21 22 23 24 25 26 27 28 29 30 31 32 33 34 35 36 37 38 39 40 41
000
FTUS43 KOAX 251616 AAC
TAFSNY
TAF AMD
KSNY 251616Z 2516/2612 33007KT P6SM -RA SCT007 OVC050
     FM251700 33012KT P6SM VCSH BKN015
     FM252100 33012KT P6SM -TSRA BKN035CB
     FM260100 34007KT P6SM SCT010 BKN050=

USA.gov is the U.S. government's official web portal to all federal, state and local government web resources and services.